When you browse on this site, cookies collect data to enhance your experience and personalize the content and advertising you see.
Visit our Privacy Policy to learn more. By continuing to use the site, you agree to this use of cookies and data.
  • en Suisse
  • Liste des pays
  • À 7 jours
  • Température de l'eau
  • Carte météo
  • Widgets météo
  • user-avatar
    Se connecter

    Météo par heure à Dover

    Ce jour, 16 Décembre, Lundi

    Heure Température Précipitation Vent Pression Humidité
    00:00 +1°C° 0 mm 3 m/s 766 mmHg 71%
    01:00 +3°C° 0 mm 1 m/s 766 mmHg 71%
    02:00 +2°C° 0.1 mm 2 m/s 766 mmHg 75%
    03:00 +1°C° 0.1 mm 2 m/s 766 mmHg 79%
    04:00 +1°C° 0.1 mm 2 m/s 766 mmHg 83%
    05:00 +1°C° 0.3 mm 2 m/s 766 mmHg 86%
    06:00 +2°C° 0.3 mm 1 m/s 767 mmHg 90%
    07:00 +2°C° 0.3 mm 1 m/s 767 mmHg 94%
    08:00 +2°C° 0.3 mm 1 m/s 767 mmHg 93%
    09:00 +1°C° 0.3 mm 2 m/s 767 mmHg 93%
    10:00 +1°C° 0.3 mm 2 m/s 767 mmHg 93%
    11:00 +2°C° 0.4 mm 2 m/s 766 mmHg 93%
    12:00 +2°C° 0.4 mm 2 m/s 766 mmHg 94%
    13:00 +2°C° 0.4 mm 2 m/s 765 mmHg 94%
    14:00 +2°C° 0.1 mm 3 m/s 765 mmHg 94%
    15:00 +2°C° 0.1 mm 3 m/s 765 mmHg 94%
    16:00 +2°C° 0.1 mm 3 m/s 764 mmHg 94%
    17:00 +2°C° 0.3 mm 3 m/s 764 mmHg 94%
    18:00 +1°C° 0.3 mm 4 m/s 764 mmHg 95%
    19:00 +1°C° 0.3 mm 4 m/s 764 mmHg 95%
    20:00 +3°C° 0.1 mm 4 m/s 764 mmHg 95%
    21:00 +3°C° 0.1 mm 4 m/s 763 mmHg 96%
    22:00 +4°C° 0.1 mm 4 m/s 762 mmHg 96%
    23:00 +4°C° 0.2 mm 3 m/s 761 mmHg 97%

    Demain, 17 Décembre, Mardi

    Heure Température Précipitation Vent Pression Humidité
    00:00 +5°C° 0.2 mm 3 m/s 761 mmHg 97%
    01:00 +5°C° 0.2 mm 3 m/s 760 mmHg 98%
    02:00 +7°C° 0.1 mm 2 m/s 759 mmHg 97%
    03:00 +7°C° 0.1 mm 2 m/s 758 mmHg 96%
    04:00 +8°C° 0.1 mm 2 m/s 757 mmHg 95%
    05:00 +9°C° 0.1 mm 2 m/s 756 mmHg 96%
    06:00 +10°C° 0.1 mm 3 m/s 755 mmHg 96%
    07:00 +11°C° 0.1 mm 3 m/s 754 mmHg 96%
    08:00 +12°C° 0.1 mm 4 m/s 754 mmHg 95%
    09:00 +13°C° 0.1 mm 5 m/s 753 mmHg 94%
    10:00 +14°C° 0.1 mm 6 m/s 753 mmHg 92%
    11:00 +15°C° 0.1 mm 6 m/s 752 mmHg 91%
    12:00 +15°C° 0.1 mm 6 m/s 751 mmHg 90%
    13:00 +16°C° 0.1 mm 7 m/s 750 mmHg 89%
    14:00 +15°C° 1.2 mm 7 m/s 750 mmHg 88%
    15:00 +14°C° 1.2 mm 7 m/s 750 mmHg 86%
    16:00 +11°C° 1.2 mm 6 m/s 750 mmHg 85%
    17:00 +10°C° 0 mm 7 m/s 751 mmHg 83%
    18:00 +8°C° 0 mm 7 m/s 752 mmHg 81%
    19:00 +6°C° 0 mm 8 m/s 753 mmHg 79%
    20:00 +4°C° 0 mm 8 m/s 754 mmHg 77%
    21:00 +1°C° 0 mm 8 m/s 755 mmHg 76%
    22:00 0°C° 0 mm 8 m/s 755 mmHg 75%
    23:00 -1°C° 0 mm 7 m/s 756 mmHg 75%

    Après-demain, 18 Décembre, Mercredi

    Heure Température Précipitation Vent Pression Humidité
    00:00 -1°C° 0 mm 7 m/s 756 mmHg 76%
    01:00 -1°C° 0 mm 7 m/s 757 mmHg 77%
    02:00 -2°C° 0 mm 6 m/s 757 mmHg 77%
    03:00 -2°C° 0 mm 6 m/s 758 mmHg 77%
    04:00 -2°C° 0 mm 5 m/s 758 mmHg 77%
    05:00 -2°C° 0 mm 5 m/s 758 mmHg 77%
    06:00 -2°C° 0 mm 5 m/s 759 mmHg 76%
    07:00 -2°C° 0 mm 4 m/s 759 mmHg 76%
    08:00 -1°C° 0 mm 5 m/s 759 mmHg 70%
    09:00 -1°C° 0 mm 6 m/s 759 mmHg 63%
    10:00 +1°C° 0 mm 6 m/s 759 mmHg 57%
    11:00 +2°C° 0 mm 7 m/s 759 mmHg 55%
    12:00 +1°C° 0 mm 8 m/s 758 mmHg 53%
    13:00 +2°C° 0 mm 8 m/s 758 mmHg 50%
    14:00 +1°C° 0 mm 8 m/s 758 mmHg 51%
    15:00 +1°C° 0 mm 8 m/s 758 mmHg 52%
    16:00 0°C° 0 mm 8 m/s 758 mmHg 53%
    17:00 -1°C° 0 mm 8 m/s 759 mmHg 54%
    18:00 -2°C° 0 mm 8 m/s 760 mmHg 55%
    19:00 -4°C° 0 mm 8 m/s 761 mmHg 55%
    20:00 -5°C° 0 mm 9 m/s 762 mmHg 54%
    21:00 -8°C° 0 mm 9 m/s 763 mmHg 52%
    22:00 -9°C° 0 mm 9 m/s 764 mmHg 50%
    23:00 -9°C° 0 mm 9 m/s 764 mmHg 50%

    19 Décembre, Jeudi

    Heure Température Précipitation Vent Pression Humidité
    00:00 -8°C° 0 mm 8 m/s 765 mmHg 50%
    01:00 -10°C° 0 mm 8 m/s 766 mmHg 49%
    02:00 -10°C° 0 mm 8 m/s 766 mmHg 49%
    03:00 -10°C° 0 mm 8 m/s 767 mmHg 48%
    04:00 -11°C° 0 mm 8 m/s 768 mmHg 48%
    05:00 -11°C° 0 mm 8 m/s 768 mmHg 48%
    06:00 -11°C° 0 mm 7 m/s 769 mmHg 48%
    07:00 -11°C° 0 mm 7 m/s 769 mmHg 48%
    08:00 -11°C° 0 mm 7 m/s 770 mmHg 46%
    09:00 -9°C° 0 mm 7 m/s 771 mmHg 44%
    10:00 -9°C° 0 mm 7 m/s 771 mmHg 42%
    11:00 -8°C° 0 mm 7 m/s 771 mmHg 40%
    12:00 -7°C° 0 mm 7 m/s 771 mmHg 39%
    13:00 -5°C° 0 mm 6 m/s 770 mmHg 37%
    14:00 -5°C° 0 mm 6 m/s 770 mmHg 39%
    15:00 -5°C° 0 mm 5 m/s 771 mmHg 41%
    16:00 -5°C° 0 mm 5 m/s 771 mmHg 43%
    17:00 -4°C° 0 mm 4 m/s 771 mmHg 47%
    18:00 -5°C° 0 mm 4 m/s 772 mmHg 51%
    19:00 -5°C° 0 mm 3 m/s 772 mmHg 55%
    20:00 -5°C° 0 mm 3 m/s 772 mmHg 56%
    21:00 -5°C° 0 mm 3 m/s 773 mmHg 57%
    22:00 -4°C° 0 mm 2 m/s 773 mmHg 58%
    23:00 -5°C° 0 mm 2 m/s 773 mmHg 59%

    20 Décembre, Vendredi

    Heure Température Précipitation Vent Pression Humidité
    00:00 -5°C° 0 mm 2 m/s 773 mmHg 60%
    01:00 -5°C° 0 mm 2 m/s 772 mmHg 61%
    02:00 -5°C° 0 mm 2 m/s 773 mmHg 61%
    03:00 -5°C° 0 mm 2 m/s 773 mmHg 62%
    04:00 -5°C° 0 mm 2 m/s 773 mmHg 62%
    05:00 -5°C° 0 mm 2 m/s 773 mmHg 62%
    06:00 -5°C° 0 mm 2 m/s 773 mmHg 62%
    07:00 -3°C° 0 mm 1 m/s 774 mmHg 62%
    08:00 -4°C° 0 mm 2 m/s 774 mmHg 57%
    09:00 -3°C° 0 mm 2 m/s 774 mmHg 52%
    10:00 -2°C° 0 mm 2 m/s 775 mmHg 46%
    11:00 -1°C° 0 mm 2 m/s 774 mmHg 44%
    12:00 +1°C° 0 mm 2 m/s 774 mmHg 42%
    13:00 +2°C° 0 mm 2 m/s 773 mmHg 40%
    14:00 +2°C° 0 mm 2 m/s 773 mmHg 43%
    15:00 +2°C° 0 mm 2 m/s 773 mmHg 46%
    16:00 +1°C° 0 mm 2 m/s 773 mmHg 49%
    17:00 +1°C° 0 mm 1 m/s 773 mmHg 52%
    18:00 +1°C° 0 mm 1 m/s 773 mmHg 54%
    19:00 0°C° 0 mm 1 m/s 774 mmHg 56%
    20:00 0°C° 0 mm 1 m/s 774 mmHg 57%
    21:00 0°C° 0 mm 1 m/s 774 mmHg 57%
    22:00 0°C° 0 mm 1 m/s 774 mmHg 57%
    23:00 0°C° 0 mm 1 m/s 773 mmHg 58%

    21 Décembre, Samedi

    Heure Température Précipitation Vent Pression Humidité
    00:00 -2°C° 0 mm 2 m/s 773 mmHg 60%
    01:00 -2°C° 0 mm 2 m/s 773 mmHg 61%
    02:00 -2°C° 0 mm 2 m/s 773 mmHg 61%
    03:00 -2°C° 0 mm 2 m/s 772 mmHg 62%
    04:00 -2°C° 0 mm 2 m/s 772 mmHg 62%
    05:00 -2°C° 0 mm 2 m/s 772 mmHg 62%
    06:00 -2°C° 0 mm 2 m/s 772 mmHg 61%
    07:00 -1°C° 0 mm 2 m/s 772 mmHg 61%
    08:00 -1°C° 0 mm 2 m/s 772 mmHg 61%
    09:00 +1°C° 0 mm 2 m/s 772 mmHg 61%
    10:00 +3°C° 0 mm 1 m/s 772 mmHg 61%
    11:00 +3°C° 0 mm 1 m/s 771 mmHg 63%
    12:00 +4°C° 0 mm 1 m/s 770 mmHg 65%
    13:00 +3°C° 0 mm 2 m/s 769 mmHg 67%
    14:00 +3°C° 0 mm 2 m/s 769 mmHg 70%
    15:00 +3°C° 0 mm 2 m/s 769 mmHg 72%
    16:00 +3°C° 0 mm 2 m/s 768 mmHg 75%
    17:00 +2°C° 0 mm 2 m/s 768 mmHg 78%
    18:00 +1°C° 0 mm 2 m/s 768 mmHg 81%
    19:00 +1°C° 0 mm 2 m/s 768 mmHg 84%
    20:00 +2°C° 0 mm 1 m/s 768 mmHg 84%
    21:00 +1°C° 0 mm 1 m/s 768 mmHg 85%
    22:00 0°C° 0 mm 0 m/s 768 mmHg 85%
    23:00 0°C° 0 mm 0 m/s 767 mmHg 86%
    Voir plus